Weather History for Livermore, CA

Change the Weather History Date:

Thursday, January 24, 2013

  Actual Average Record
Temperature  
Mean Temperature 51 °F 47 °F  
Max Temperature 54 °F 56 °F 73 °F (1975)
Min Temperature 48 °F 38 °F 23 °F (1962)
Degree Days  
Heating Degree Days 14 18  
Month to date heating degree days 516 447  
Since 1 July heating degree days 1387 1478  
Cooling Degree Days 0 0  
Month to date cooling degree days 0 0  
Year to date cooling degree days 0 0  
Growing Degree Days 1 (Base 50)    
Moisture  
Dew Point 49 °F    
Average Humidity 92    
Maximum Humidity 100    
Minimum Humidity 83    
Precipitation  
Precipitation 0.30 in 0.07 in 1.83 in (2000)
Month to date precipitation 0.69 2.48  
Year to date precipitation 0.69 2.48  
Since 1 July precipitation 8.98 8.29  
Sea Level Pressure  
Sea Level Pressure 30.14 in    
Wind  
Wind Speed 3 mph (East)    
Max Wind Speed 12 mph    
Max Gust Speed 14 mph    
Visibility 5 miles    
Events Rain    
T = Trace of Precipitation, MM = Missing Value Source: NWS Daily Summary

Daily Weather History Graph

Daily Weather History Graph

Search for Another Location

Airport:

Trip Planner

Search our weather history database for the weather conditions in past years. The results will help you decide how hot, cold, wet, or windy it might be!

Date:

Astronomy

Jan. 24, 2013 Rise Set
Actual Time 7:16 AM PST 5:22 PM PST
Civil Twilight 6:48 AM PST 5:50 PM PST
Nautical Twilight 6:16 AM PST 6:22 PM PST
Astronomical Twilight 5:45 AM PST 6:53 PM PST
Moon 3:30 PM PST 5:17 AM PST
Length of Visible Light 11h 01m
Length of Day
10h 05m
Waxing Gibbous, 95% of the Moon is Illuminated
Jan 24
Waxing Gibbous
Jan 26
Full
Feb 3
Last Quarter
Feb 9
New
Feb 17
First Quarter

Hourly Weather History & Observations

Time (PST) Temp. Dew Point Humidity Pressure Visibility Wind Dir Wind Speed Gust Speed Precip Events Conditions
12:46 AM 48.2 °F 46.4 °F 93% 30.09 in 1.8 mi Calm Calm - 0.01 in   Overcast
12:53 AM 48.0 °F 46.9 °F 96% 30.09 in 1.8 mi SE 3.5 mph - 0.01 in Rain Light Rain
1:08 AM 48.2 °F 46.4 °F 93% 30.08 in 1.8 mi Calm Calm - 0.00 in Rain Light Rain
1:42 AM 48.2 °F 48.2 °F 100% 30.08 in 3.0 mi East 5.8 mph - 0.00 in   Overcast
1:53 AM 50.0 °F 48.0 °F 93% 30.09 in 5.0 mi East 5.8 mph - 0.00 in   Overcast
2:53 AM 50.0 °F 48.0 °F 93% 30.09 in 5.0 mi East 8.1 mph - N/A   Overcast
3:01 AM 50.0 °F 48.2 °F 94% 30.08 in 5.0 mi East 5.8 mph - N/A   Overcast
3:53 AM 50.0 °F 48.0 °F 93% 30.08 in 5.0 mi East 3.5 mph - N/A   Overcast
4:05 AM 50.0 °F 48.2 °F 94% 30.08 in 4.0 mi Variable 3.5 mph - N/A   Overcast
4:14 AM 48.2 °F 48.2 °F 100% 30.08 in 5.0 mi Calm Calm - N/A   Overcast
4:46 AM 48.2 °F 48.2 °F 100% 30.09 in 4.0 mi SSE 3.5 mph - N/A   Overcast
4:53 AM 48.9 °F 48.0 °F 97% 30.09 in 4.0 mi Calm Calm - N/A   Overcast
5:53 AM 50.0 °F 48.0 °F 93% 30.09 in 5.0 mi Calm Calm - N/A   Overcast
6:53 AM 51.1 °F 48.0 °F 89% 30.10 in 10.0 mi East 8.1 mph - N/A   Overcast
7:53 AM 51.1 °F 48.0 °F 89% 30.11 in 10.0 mi East 9.2 mph - N/A   Overcast
8:53 AM - - N/A% 30.13 in - North - - N/A   Unknown
9:53 AM 53.1 °F 48.9 °F 86% 30.16 in 9.0 mi WNW 3.5 mph - N/A   Overcast
10:53 AM 53.1 °F 48.9 °F 86% 30.17 in 9.0 mi Calm Calm - N/A   Overcast
11:53 AM 53.1 °F 50.0 °F 89% 30.16 in 8.0 mi Calm Calm - 0.00 in Rain Light Rain
11:55 AM 53.6 °F 50.0 °F 88% 30.15 in 8.0 mi Calm Calm - 0.00 in Rain Light Rain
12:53 PM 54.0 °F 51.1 °F 90% 30.13 in 10.0 mi SE 3.5 mph - 0.01 in   Overcast
1:53 PM 53.1 °F 50.0 °F 89% 30.12 in 7.0 mi East 5.8 mph - 0.03 in Rain Light Rain
2:05 PM 53.6 °F 51.8 °F 94% 30.12 in 6.0 mi East 5.8 mph - 0.01 in Rain Light Rain
2:53 PM 52.0 °F 50.0 °F 93% 30.13 in 6.0 mi East 5.8 mph - 0.06 in Rain Light Rain
3:53 PM 52.0 °F 50.0 °F 93% 30.14 in 4.0 mi East 5.8 mph - 0.09 in Rain Light Rain
4:53 PM 51.1 °F 50.0 °F 96% 30.15 in 7.0 mi Calm Calm - 0.05 in Rain Light Rain
5:39 PM 51.8 °F 50.0 °F 94% 30.15 in 5.0 mi Calm Calm - 0.00 in Rain Light Rain
5:49 PM 51.8 °F 50.0 °F 94% 30.16 in 4.0 mi Calm Calm - 0.00 in Rain Light Rain
5:53 PM 51.1 °F 50.0 °F 96% 30.16 in 4.0 mi Calm Calm - 0.00 in Rain Light Rain
6:39 PM 51.8 °F 50.0 °F 94% 30.16 in 8.0 mi Calm Calm - 0.01 in   Overcast
6:53 PM 51.1 °F 50.0 °F 96% 30.17 in 8.0 mi Calm Calm - 0.01 in Rain Light Rain
7:53 PM 51.1 °F 50.0 °F 96% 30.18 in 5.0 mi Calm Calm - 0.01 in Rain Light Rain
8:53 PM 50.0 °F 50.0 °F 100% 30.18 in 4.0 mi Calm Calm - 0.01 in Rain Light Rain
9:27 PM 51.8 °F 50.0 °F 94% 30.19 in 2.5 mi Calm Calm - 0.01 in Rain Light Rain
9:53 PM 51.1 °F 50.0 °F 96% 30.18 in 1.8 mi Calm Calm - 0.02 in Rain Light Rain
10:09 PM 50.0 °F 50.0 °F 100% 30.18 in 2.5 mi Calm Calm - 0.00 in Rain Light Rain
10:49 PM 50.0 °F 50.0 °F 100% 30.19 in 1.8 mi Calm Calm - 0.00 in   Overcast
10:53 PM 50.0 °F 50.0 °F 100% 30.19 in 1.5 mi Calm Calm - 0.00 in   Overcast
11:03 PM 50.0 °F 48.2 °F 94% 30.19 in 0.8 mi Calm Calm - N/A   Overcast
11:18 PM 50.0 °F 48.2 °F 94% 30.19 in 1.2 mi Calm Calm - N/A   Overcast
11:53 PM 50.0 °F 48.9 °F 96% 30.20 in 1.5 mi Calm Calm - N/A   Overcast